Regional Weather Roundup
Issued by NWS

Home | Current Version | Previous Version | Text Only | Print | Product List | Glossary On
Versions: 1 2 3 4 5 6 7 8 9 10 11 12 13 14 15 16 17 18 19 20 21 22 23 24 25 26 27 28 29 30 31 32 33 34 35 36 37 38 39 40 41 42 43 44 45 46 47 48 49 50
000
ASUS43 KLSX 281707
RWRMO

WEATHER SUMMARY FOR MISSOURI
NATIONAL WEATHER SERVICE SPRINGFIELD MO
1200 PM CDT TUE JUL 28 2015

NOTE: "FAIR" INDICATES FEW OR NO CLOUDS BELOW 12,000 FEET WITH NO
       SIGNIFICANT WEATHER AND/OR OBSTRUCTIONS TO VISIBILITY.
       CURRENT SKY AND/OR WEATHER CONDITIONS ARE NOT AVAILABLE FOR
       CHILLICOTHE AND FARMINGTON.

MOZ001>031-035>038-043-044-053-054-281800-
...NORTHERN AND WESTERN MISSOURI...

CITY           SKY/WX    TMP DP  RH WIND       PRES   REMARKS
KANSAS CTY INT MOSUNNY   90  75  61 SW14      29.92S HX 100
KANSAS C DTWN  SUNNY     93  73  52 S14G24    29.90S HX 102
LEE`S SUMMIT   SUNNY     90  72  55 SW13G21   29.94R HX  97
ST JOSEPH      SUNNY     89  75  63 S12       29.89S HX  99
CHILLICOTHE      N/A     91  76  61 SW8       29.93S HX 103
KIRKSVILLE     SUNNY     90  77  65 SW9       29.97R HX 103

$$
MOZ066>068-077>081-088>096-101>105-281800-
...SOUTHWEST MISSOURI...

CITY           SKY/WX    TMP DP  RH WIND       PRES   REMARKS
SPRINGFIELD    SUNNY     90  73  57 SW13      30.02R HX  98
JOPLIN         SUNNY     92  72  51 SW13      29.99R HX  99

$$
MOZ032>034-039>042-045>050-055>058-069>072-281800-
...CENTRAL MISSOURI...

CITY           SKY/WX    TMP DP  RH WIND       PRES   REMARKS
COLUMBIA       SUNNY     90  78  68 SW7       29.97S HX 104
JEFFERSON CITY SUNNY     92  75  57 CALM      29.95S HX 103
ROLLA          SUNNY     90  77  65 CALM      30.00R HX 103
SEDALIA        SUNNY     92  74  55 SW16      29.97S HX 101
WHITEMAN AFB   MOSUNNY   93  73  51 SW17      29.94S HX 102
WARRENSBURG    SUNNY     90  70  51 S15       29.94S HX  95
OSAGE BEACH    SUNNY     91  73  55 W6        30.00R HX 100

$$
MOZ051-052-059>065-281800-
...EAST CENTRAL MISSOURI...

CITY           SKY/WX    TMP DP  RH WIND       PRES   REMARKS
ST LOUIS INTL  MOSUNNY   95  76  53 CALM      29.97F HX 108
SPIRIT OF STL  MOSUNNY   91  79  67 W3        29.96S HX 107
ST CHARLES     MOSUNNY   89  80  74 CALM      29.95F HX 106

$$
MOZ072>076-082>087-097>100-106>115-281800-
...SOUTH CENTRAL AND SOUTHEAST MISSOURI...

CITY           SKY/WX    TMP DP  RH WIND       PRES   REMARKS
CAPE GIRARDEAU SUNNY     91  78  65 SW3       29.98S HX 106
FARMINGTON     SUNNY     91  77  62 W7        30.05R HX 105
POPLAR BLUFF   SUNNY     91  80  70 SW7       29.98R HX 109
WEST PLAINS    SUNNY     90  74  59 NW6       30.05S HX  99

$$



USA.gov is the U.S. government's official web portal to all federal, state and local government web resources and services.